Tracking 17742 objects as of 25-June-2016
HD Live streaming from Space Station
objects crossing your sky now

ARIANE 5 R/B

Track ARIANE 5 R/B now!


NORAD ID: 29275
Int'l Code: 2006-033D
Perigee: 305.3 km
Apogee: 33,361.1 km
Inclination: 6.4 °
Period: 586.3 minutes
Semi major axis: 23204 km
RCS: 37.7588 m2 (large)
Launch date: August 11, 2006
Source: France (FR)
Launch site: FRENCH GUIANA (FRGUI)

Note: This is a ROCKET BODY
Your satellite tracking list
Your tracking list is empty





NASA's NSSDC Master Catalog

Two Line Element Set (TLE):
1 29275U 06033D   16176.55881293 -.00000016  00000-0  11660-3 0  9994
2 29275   6.3800   7.2163 7122805   9.0027 358.9901  2.45613890 85057
Source of the keplerian elements: AFSPC

N2YO: 1122